World > North America > United States > New York > West Park  

West Park, NY Hourly Weather Forecast

Feedback E-mail the Weather

Quick Clicks

Weather World

24 Hour Forecast

Current Conditions - Overcast. Temperature is 58°F14°C, dew point 38°F3°C, humidity 47%. Wind direction is SSW at 8 mph13 km/h with visibility of 10 mi16 km. Barometric pressure is 30.07 in1018 mb.
Today - Mostly cloudy with a 20% chance of showers. Not as cool with highs in the upper 50s. South winds around 10 mph... Full Forecast
Tonight - Mostly cloudy with a 50% chance of showers. Lows in the upper 40s. South winds 5 to 10 mph... Full Forecast

West Park Hourly Weather

24 Hour Weather Scroll
Fri, Apr 19
2:00 pm
Fri, Apr 19
3:00 pm
Fri, Apr 19
4:00 pm
Fri, Apr 19
5:00 pm
Fri, Apr 19
6:00 pm
Fri, Apr 19
7:00 pm
Fri, Apr 19
8:00 pm
Fri, Apr 19
9:00 pm
Fri, Apr 19
10:00 pm
Fri, Apr 19
11:00 pm
Sat, Apr 20
Midnight
Sat, Apr 20
1:00 am
Sat, Apr 20
2:00 am
Sat, Apr 20
3:00 am
Sat, Apr 20
4:00 am
Sat, Apr 20
5:00 am
Sat, Apr 20
6:00 am
Sat, Apr 20
7:00 am
Sat, Apr 20
8:00 am
Sat, Apr 20
9:00 am
Sat, Apr 20
10:00 am
Sat, Apr 20
11:00 am
Sat, Apr 20
Noon
Sat, Apr 20
1:00 pm
OvercastCloudy Cloudy Patchy Rain NearbyPartly Cloudy Patchy Rain NearbyPatchy Rain NearbyPatchy Rain NearbyOvercast Light DrizzleLight DrizzleLight DrizzleLight DrizzleLight RainFogFogMistMistPatchy Rain NearbyPatchy Rain NearbyPatchy Rain NearbyOvercast Overcast Sunny
Overcast Cloudy Cloudy Patchy Rain Nearby Partly Cloudy Patchy Rain Nearby Patchy Rain Nearby Patchy Rain Nearby Overcast Light Drizzle Light Drizzle Light Drizzle Light Drizzle Light Rain Fog Fog Mist Mist Patchy Rain Nearby Patchy Rain Nearby Patchy Rain Nearby Overcast Overcast Sunny
55°F13°C 56°F13°C 57°F14°C 56°F13°C 54°F12°C 51°F11°C 50°F10°C 49°F9°C 48°F9°C 48°F9°C 47°F8°C 47°F8°C 47°F8°C 47°F8°C 47°F8°C 47°F8°C 47°F9°C 48°F9°C 49°F10°C 51°F11°C 53°F11°C 53°F12°C 55°F13°C 58°F14°C
42°F
6°C
43°F
6°C
42°F
6°C
44°F
6°C
44°F
7°C
44°F
7°C
44°F
7°C
44°F
7°C
45°F
7°C
45°F
7°C
46°F
8°C
46°F
8°C
46°F
8°C
46°F
8°C
46°F
8°C
47°F
8°C
46°F
8°C
46°F
8°C
47°F
8°C
45°F
7°C
43°F
6°C
39°F
4°C
37°F
3°C
35°F
2°C
30.06 in
1018 mb
30.06 in
1018 mb
30.03 in
1017 mb
30 in
1016 mb
30 in
1016 mb
30 in
1016 mb
30.03 in
1017 mb
30.03 in
1017 mb
30.03 in
1017 mb
30 in
1016 mb
30 in
1016 mb
29.97 in
1015 mb
29.97 in
1015 mb
29.94 in
1014 mb
29.94 in
1014 mb
29.94 in
1014 mb
29.94 in
1014 mb
29.94 in
1014 mb
29.94 in
1014 mb
29.94 in
1014 mb
29.94 in
1014 mb
29.91 in
1013 mb
29.91 in
1013 mb
29.88 in
1012 mb
54%61%57%61%69%75%83%85%88%90%95%96%97%98%98%98%97%95%92%81%69%57%51%43%
SSWSSSSSSSSSSWSSWSSSWSSWSWSWWNNWNNWNNWWNWWNWW
13 mph
20 km/h
8 mph
13 km/h
10 mph
15 km/h
9 mph
14 km/h
9 mph
15 km/h
9 mph
14 km/h
8 mph
13 km/h
5 mph
9 km/h
4 mph
7 km/h
4 mph
6 km/h
4 mph
6 km/h
4 mph
6 km/h
4 mph
6 km/h
3 mph
5 km/h
3 mph
4 km/h
3 mph
5 km/h
3 mph
4 km/h
2 mph
4 km/h
3 mph
5 km/h
2 mph
4 km/h
3 mph
5 km/h
6 mph
9 km/h
8 mph
12 km/h
8 mph
13 km/h
0%0%0%100%0%84%74%63%0%100%100%100%100%100%77%69%76%0%62%62%81%0%0%0%
10 mi
16 km
6 mi
10 km
6 mi
10 km
6 mi
10 km
6 mi
10 km
6 mi
10 km
6 mi
10 km
6 mi
10 km
6 mi
10 km
1 mi
2 km
1 mi
2 km
1 mi
2 km
1 mi
2 km
6 mi
9 km
0 mi
0 km
0 mi
0 km
1 mi
2 km
1 mi
2 km
6 mi
10 km
6 mi
10 km
6 mi
10 km
6 mi
10 km
6 mi
10 km
6 mi
10 km

Day/Time
Weather
Condition
Temperature
Dew Point
Pressure
Humidity
Wind Direction
Wind Speed
Prob Precip %
Visibility
POP = Probability of Precipitation. ** Indicates missing data/values from KPOU model statistics.

Trending Headlines

Trending Entertainment Headlines

West Park Radar Loop

Use the map search tool if you want to place a location marker on the radar map...

48 Hour API Forecast

Prob Precip % = Probability of Precipitation.

West Park 36 Hour Forecast

POP = Probability of Precipitation. ** Indicates missing data/values from model statistics.

E-mail the West Park Weather Forecast

Voice your opinion or tell us about page issues...

West Park NY Weather - 2:29 pm

What are people saying?

Contact Us